Nellis AFB, NV

11:42 PM PST on December 15, 2019 (GMT -0800)
Nellis Air Force Base

Weather History for KLSV - September, 2019

Change the Weather History Date:

Monday, September 16, 2019

  Actual Average Record
Temperature  
Mean Temperature 88 °F -  
Max Temperature 95 °F 92 °F 107 °F (2000)
Min Temperature 81 °F 67 °F 60 °F (2005)
Cooling Degree Days 23    
Growing Degree Days 38 (Base 50)    
Moisture  
Dew Point 29 °F    
Average Humidity 13    
Maximum Humidity 19    
Minimum Humidity 7    
Precipitation  
Precipitation 0.00 in - - ()
Sea Level Pressure  
Sea Level Pressure 29.71 in    
Wind  
Wind Speed 15 mph (South)    
Max Wind Speed 26 mph    
Max Gust Speed 32 mph    
Visibility 10 miles    
Events      
Averages and records for this station are not official NWS values.
T = Trace of Precipitation, MM = Missing Value Source: NWS Daily Summary

Daily Weather History Graph

Daily Weather History Graph

Search for Another Location

Airport or City:

Astronomy

Sep. 16, 2019 Rise Set
Actual Time 6:23 AM PDT 6:46 PM PDT
Civil Twilight 5:57 AM PDT 7:11 PM PDT
Nautical Twilight 5:27 AM PDT 7:42 PM PDT
Astronomical Twilight 4:56 AM PDT 8:12 PM PDT
Moon 8:26 PM PDT 8:31 AM PDT
Length of Visible Light 13h 14m
Length of Day
12h 22m
Waning Gibbous, 94% of the Moon is Illuminated
Sep 16
Waning Gibbous
Sep 21
Last Quarter
Sep 28
New
Oct 5
First Quarter
Oct 13
Full

Hourly Weather History & Observations

Time (PDT) Temp. Dew Point Humidity Pressure Visibility Wind Dir Wind Speed Gust Speed Precip Events Conditions
12:58 AM 86.0 °F 29.5 °F 13% 29.72 in 10.0 mi SSW 8.1 mph - N/A   Mostly Cloudy
1:58 AM 85.3 °F 28.8 °F 13% 29.73 in 10.0 mi SSW 8.1 mph - N/A   Clear
2:58 AM 83.7 °F 27.3 °F 13% 29.74 in 7.0 mi South 9.2 mph - N/A   Partly Cloudy
3:56 AM 82.8 °F 27.1 °F 13% 29.68 in 7.0 mi SSW 8.1 mph - N/A   Scattered Clouds
4:59 AM 83.3 °F 28.9 °F 14% 29.68 in 7.0 mi SSW 12.7 mph - N/A   Mostly Cloudy
5:56 AM 81.5 °F 29.7 °F 15% 29.68 in 10.0 mi SSW 12.7 mph - N/A   Scattered Clouds
6:55 AM 81.0 °F 34.9 °F 19% 29.75 in 10.0 mi SSE 13.8 mph - N/A   Mostly Cloudy
7:58 AM 82.8 °F 30.4 °F 15% 29.72 in 10.0 mi SSE 21.9 mph - N/A   Clear
8:58 AM 86.5 °F 27.9 °F 12% 29.77 in 10.0 mi SSE 24.2 mph - N/A   Clear
9:58 AM 90.0 °F 23.5 °F 9% 29.78 in 10.0 mi South 26.5 mph - N/A   Clear
10:58 AM 92.3 °F 22.5 °F 8% 29.77 in 10.0 mi South 19.6 mph - N/A   Clear
11:58 AM 94.5 °F 20.8 °F 7% 29.68 in 10.0 mi South 23.0 mph - N/A   Partly Cloudy
12:58 PM 95.0 °F 27.3 °F 9% 29.72 in 10.0 mi South 23.0 mph 28.8 mph N/A   Partly Cloudy
1:58 PM 94.1 °F 29.1 °F 10% 29.70 in 10.0 mi South 20.7 mph 32.2 mph N/A   Clear
2:58 PM 93.6 °F 28.8 °F 10% 29.75 in 10.0 mi SSW 26.5 mph 31.1 mph N/A   Clear
3:58 PM 93.4 °F 30.9 °F 11% 29.67 in 10.0 mi South 23.0 mph 28.8 mph N/A   Scattered Clouds
5:58 PM 91.8 °F 29.8 °F 11% 29.65 in 10.0 mi South 20.7 mph - N/A   Clear
6:58 PM 90.1 °F 34.5 °F 14% 29.64 in 10.0 mi South 25.3 mph - N/A   Clear
7:58 PM 87.8 °F 32.7 °F 14% 29.66 in 10.0 mi SSW 11.5 mph - N/A   Clear
8:58 PM 85.8 °F 36.0 °F 17% 29.67 in 10.0 mi SSE 18.4 mph - N/A   Clear
9:58 PM 85.1 °F 33.8 °F 16% 29.68 in 10.0 mi SSE 13.8 mph - N/A   Clear
10:58 PM 84.2 °F 29.8 °F 14% 29.70 in 10.0 mi South 12.7 mph 24.2 mph N/A   Clear
11:58 PM 82.6 °F 30.2 °F 15% 29.70 in 10.0 mi SSE 10.4 mph - N/A   Clear